Theta_e
346 345 346 346 345 344 342 342 343 343 343 343 342 340 340 338 337 336 337 339 339 338 337 338 337 337 337 336 335 331 330 331 334 336 337 335 335 335 335 334 332 332 334 335 333 333 334 333 333 332 332 331 332 331 328 326 323 316 314 312 311 320 327 323 316 315 316 315 316 317 316 316 314 307 302 300 300 300 299 299 299 299 300 300 300
345 345 346 346 344 343 342 343 343 343 343 343 342 341 341 338 337 337 338 338 338 338 338 338 338 338 337 334 333 332 331 332 335 336 336 335 335 335 335 334 333 333 334 335 334 334 334 333 333 332 331 330 329 328 324 320 317 313 312 312 312 321 328 324 318 319 322 320 319 319 316 315 312 306 300 300 300 299 299 299 299 299 299 299 300
345 345 345 344 344 343 342 343 343 343 343 343 342 341 340 339 338 338 339 339 338 338 339 339 338 337 334 330 330 332 332 334 335 335 335 335 335 335 335 335 334 334 334 334 333 333 333 332 331 330 329 328 325 323 319 316 314 312 313 313 311 314 320 322 320 323 327 325 323 323 320 318 317 312 303 299 300 299 299 299 299 299 299 299 300
344 345 344 343 343 342 342 343 343 343 343 342 341 341 340 338 337 338 338 339 338 338 339 338 336 335 331 329 330 333 334 335 335 334 335 335 335 334 334 333 333 334 333 332 332 331 331 330 329 328 326 325 322 318 315 313 312 311 311 310 312 315 315 313 311 318 328 327 324 326 324 321 322 318 309 301 301 301 300 300 299 299 299 300 302
344 345 344 343 342 342 342 342 342 343 343 341 340 341 340 338 337 337 338 337 337 337 338 336 334 333 332 330 331 333 334 334 334 333 334 335 334 333 332 331 331 332 332 332 330 329 328 328 327 326 323 321 317 314 313 312 311 310 308 305 310 315 312 304 302 312 324 326 325 327 324 323 322 317 312 306 304 303 302 301 299 299 300 302 303
345 344 344 343 342 343 343 342 342 343 343 340 339 339 339 338 338 337 337 336 335 336 335 333 334 333 331 331 330 330 332 333 333 333 333 333 332 332 332 331 331 332 332 331 329 328 327 326 325 323 320 316 314 313 312 311 309 307 305 303 304 307 304 302 302 306 314 318 321 323 321 322 318 313 313 311 307 307 305 301 300 300 300 303 304
344 344 343 343 343 342 342 342 342 342 342 340 338 338 339 338 338 336 335 335 334 335 334 333 333 332 330 330 327 326 330 333 333 333 333 332 331 331 331 332 332 332 331 330 328 327 325 324 322 319 316 313 312 312 310 309 307 304 303 303 303 302 302 305 304 302 305 307 310 311 310 311 310 311 316 314 311 312 309 306 303 301 300 301 302
343 343 343 343 342 343 342 341 342 341 340 338 337 338 338 338 337 335 334 335 335 334 333 333 332 331 330 329 325 327 332 334 333 333 333 332 330 330 331 332 332 331 330 328 327 325 323 322 319 314 313 312 311 310 308 305 303 303 303 303 302 302 303 305 304 303 302 301 302 302 301 302 303 307 313 314 313 314 311 309 308 306 303 301 299
342 342 343 344 343 343 342 341 341 340 339 338 337 338 338 337 335 333 334 335 335 333 333 333 332 330 330 328 328 332 334 332 332 332 332 331 330 329 330 332 331 330 329 327 326 324 322 319 315 312 311 311 309 307 304 303 302 302 302 302 302 302 302 302 302 302 302 302 302 302 302 301 301 302 306 310 312 312 310 309 309 309 310 307 302
343 342 343 344 343 342 341 341 341 340 339 339 338 337 338 337 335 334 334 335 334 333 333 334 331 328 328 329 332 334 333 330 330 330 328 328 329 330 331 331 330 329 328 325 324 322 319 316 312 311 310 309 306 304 302 302 302 302 302 301 301 301 301 301 301 301 301 302 303 306 308 308 307 306 306 309 310 310 310 308 307 309 311 310 305
341 342 342 343 343 342 341 341 341 340 340 339 338 337 337 337 336 335 335 335 335 334 334 335 331 327 329 331 333 333 331 330 330 328 326 327 329 330 331 330 328 327 326 324 322 319 316 313 310 310 308 305 303 302 302 302 301 301 301 301 301 301 301 301 301 301 300 300 301 304 306 306 307 307 306 309 310 310 310 309 307 307 308 309 306
339 341 341 343 343 342 341 340 341 340 340 339 338 337 337 337 337 336 336 336 336 335 335 334 331 330 332 333 333 332 330 329 331 329 327 327 329 330 330 328 326 325 324 322 320 316 313 311 309 308 305 303 302 301 301 301 301 301 300 300 300 300 300 300 300 300 300 300 300 300 301 300 301 301 301 304 307 309 310 309 308 307 308 308 306
339 341 342 343 343 342 340 340 340 340 339 339 338 338 338 338 338 338 337 336 336 335 335 335 333 332 334 334 333 332 331 331 332 330 328 328 329 330 329 327 325 324 322 321 318 314 311 309 308 306 303 302 301 301 301 301 301 300 300 300 300 300 300 300 300 300 299 299 299 299 299 299 299 299 299 299 303 306 307 308 308 308 309 307 306
339 341 342 342 342 341 340 340 340 340 339 339 339 338 338 337 338 338 338 337 336 335 335 335 334 333 334 334 332 332 333 332 332 331 329 330 330 330 328 326 324 323 321 319 315 311 310 308 306 304 302 301 301 300 300 300 300 300 300 300 300 300 300 299 299 299 299 299 299 299 299 299 298 299 299 298 299 301 301 304 307 308 308 306 305
338 340 341 342 342 340 340 340 339 340 339 339 339 338 338 338 338 338 338 338 337 336 335 334 334 334 335 333 332 333 332 330 331 331 330 330 329 329 327 326 324 322 320 317 313 311 309 307 305 302 301 300 300 300 300 300 300 300 300 299 299 299 299 299 299 299 299 299 299 299 299 299 299 298 299 298 298 298 298 300 303 307 308 305 305
337 339 341 342 342 340 340 340 340 340 339 338 338 338 338 338 338 338 338 338 337 336 335 334 334 335 334 333 332 332 330 329 331 331 330 330 328 328 328 326 323 322 319 315 312 310 308 306 303 301 300 300 300 300 300 300 300 299 299 299 299 299 299 299 299 299 299 299 298 299 298 298 298 298 298 298 297 297 297 298 299 302 305 305 305
336 337 339 341 342 341 340 340 339 339 339 338 338 338 338 338 338 338 338 337 336 336 335 334 335 335 334 333 331 329 329 330 331 330 330 329 328 329 328 325 322 321 319 314 311 309 307 304 301 300 300 300 300 300 299 299 299 299 299 299 299 299 298 298 298 298 298 298 298 298 298 298 298 298 298 297 298 297 297 297 297 298 301 303 304
336 337 339 341 342 341 341 340 339 338 339 339 339 339 338 337 337 337 337 337 335 335 334 334 334 334 334 331 329 328 330 331 331 330 330 329 329 329 327 324 322 321 317 313 310 308 305 302 300 300 300 299 300 299 299 299 299 299 299 299 298 298 298 298 298 298 298 298 298 298 298 298 297 297 297 297 297 297 297 297 297 297 297 299 302
338 340 340 341 341 341 341 340 339 338 339 339 338 338 338 337 337 337 337 336 334 335 335 334 334 334 333 331 329 330 331 331 331 331 330 329 329 329 326 323 322 319 315 312 310 307 304 301 300 300 299 299 299 299 299 299 299 299 298 298 298 298 298 298 298 298 298 298 298 298 297 297 297 297 297 297 297 297 298 297 297 297 297 297 299
339 341 341 340 341 341 341 340 339 338 339 339 338 338 338 337 336 336 336 335 334 335 335 335 334 334 333 331 331 331 330 331 331 331 330 329 329 328 325 323 321 318 314 311 308 305 302 300 299 299 299 299 299 299 299 298 298 298 298 298 298 298 298 298 298 297 297 297 297 297 297 297 297 297 297 297 297 297 297 297 298 298 298 296 297
336 338 340 340 340 341 341 340 339 338 338 339 338 338 338 338 337 336 336 336 334 334 335 335 334 333 332 332 331 331 330 331 331 330 329 329 328 327 325 323 321 319 314 309 306 303 300 299 299 299 299 299 299 299 298 298 298 298 298 297 297 297 297 297 297 297 297 297 297 297 297 297 297 298 298 298 298 298 299 298 298 299 298 297 297
336 338 341 341 340 341 341 340 339 339 338 338 338 338 338 338 337 337 337 336 335 335 335 335 334 333 332 332 331 331 331 331 330 329 329 329 328 327 325 323 322 319 313 307 305 302 299 299 299 299 299 299 299 299 298 298 298 298 297 297 297 297 297 297 297 297 297 297 296 296 296 296 296 297 298 298 298 299 300 299 298 298 298 297 297
339 340 342 341 340 341 341 340 340 339 338 337 338 338 338 338 338 337 337 336 335 335 335 334 334 332 332 332 331 330 330 330 330 329 329 329 327 326 324 323 322 319 311 306 304 301 299 299 298 298 299 298 298 298 298 298 298 298 297 297 298 297 296 296 296 296 296 296 296 296 296 296 296 296 297 297 297 298 299 298 298 298 298 297 297
339 340 342 341 340 340 341 340 340 339 338 338 337 338 338 337 337 336 337 336 335 335 335 334 333 332 332 331 330 329 330 330 329 328 329 328 326 325 324 322 321 317 308 305 304 301 298 298 298 299 299 298 298 298 298 298 297 297 297 297 297 296 297 297 297 296 297 296 296 296 296 296 296 296 297 297 297 298 298 298 298 299 300 298 298
339 340 341 340 339 340 340 340 340 339 339 338 337 337 337 337 337 336 337 336 334 334 334 333 332 332 331 331 330 330 330 330 329 328 328 328 326 325 323 321 321 316 308 306 304 300 299 299 299 300 300 298 298 298 298 298 297 297 297 297 297 297 297 298 297 297 297 296 296 297 297 297 297 296 297 297 296 297 298 297 296 298 299 298 298
341 342 341 339 339 340 340 340 339 339 339 338 337 337 337 336 337 337 337 336 334 334 333 332 332 332 331 330 330 331 330 330 329 328 328 327 325 324 322 321 319 314 309 306 303 301 302 301 301 302 301 299 298 298 299 299 297 297 297 298 297 297 297 297 296 296 296 296 297 297 297 297 296 296 296 296 296 296 297 296 296 297 297 297 299
342 342 341 339 339 340 340 339 339 339 339 338 338 337 336 337 337 337 336 336 334 333 333 332 331 331 330 330 330 330 330 330 329 327 328 327 325 324 322 320 318 313 309 305 303 303 304 304 305 305 303 300 298 300 300 299 297 297 298 298 297 297 296 296 296 296 295 296 296 297 297 296 296 296 296 296 296 296 296 296 296 296 296 296 299
342 342 340 339 338 339 340 339 339 339 338 338 338 337 336 337 337 336 336 335 333 333 332 331 331 331 330 329 330 330 330 330 328 327 327 326 325 323 321 319 316 312 309 305 305 305 305 306 308 306 303 301 299 301 302 300 299 299 298 298 297 297 297 297 296 296 295 296 296 296 296 296 296 296 296 296 297 296 297 296 296 296 296 296 297
341 342 340 339 338 340 340 339 338 338 338 338 337 336 336 336 336 336 335 335 333 332 332 331 330 329 329 329 329 330 331 330 328 327 326 325 324 323 320 317 315 312 309 306 307 307 305 308 309 305 303 301 300 302 303 301 301 300 298 297 298 298 298 297 297 296 296 296 296 296 297 296 296 297 296 297 296 296 297 296 296 296 296 296 296
339 341 340 339 339 340 340 339 338 338 337 337 336 335 335 335 336 335 335 334 333 332 331 331 329 329 329 330 330 330 331 329 327 327 326 324 324 322 319 316 314 312 308 306 308 308 307 309 308 305 305 302 300 304 304 302 302 301 298 299 300 300 299 298 298 298 297 297 296 296 297 296 296 297 296 296 296 296 296 296 296 296 296 296 295
339 340 339 339 338 340 340 339 338 338 337 337 336 335 334 335 335 335 334 333 333 332 331 331 329 329 329 331 331 331 330 328 327 326 325 323 322 320 318 316 314 312 307 304 307 308 308 309 308 306 306 302 302 304 302 300 301 301 300 302 302 301 302 301 300 299 298 298 297 296 296 296 296 297 296 296 296 296 296 296 296 296 296 296 295
339 339 339 338 338 339 340 339 338 337 337 336 335 335 335 335 335 334 333 332 332 332 331 331 330 329 329 331 331 330 329 328 327 325 324 322 321 319 318 316 315 312 306 304 306 307 308 309 309 308 306 303 302 303 300 298 299 299 301 303 304 304 304 303 302 301 300 299 298 297 296 296 296 296 296 297 296 296 296 296 296 296 296 296 296
338 339 339 338 338 339 339 338 337 337 337 336 335 335 335 335 335 333 332 332 332 332 331 331 330 329 329 331 332 330 328 327 326 324 324 322 320 320 319 317 314 311 307 306 307 308 308 309 309 309 307 303 301 300 298 297 297 297 298 303 306 306 305 305 304 304 303 302 299 297 296 296 296 296 296 297 297 296 296 296 296 296 296 296 296
338 339 338 338 338 339 338 338 338 337 336 335 335 335 334 335 334 333 332 331 331 331 331 330 329 328 328 330 331 329 327 325 324 325 325 323 321 320 319 317 314 310 307 306 306 307 308 308 307 308 308 304 300 298 297 296 296 296 296 301 306 306 305 306 305 305 305 304 302 301 300 298 296 296 296 297 296 297 297 298 299 299 298 298 296
338 338 338 338 338 338 338 338 337 337 336 335 334 334 334 334 333 332 331 330 330 331 330 329 328 326 326 329 329 328 327 326 326 326 326 323 321 320 317 316 314 310 307 305 303 304 306 306 306 307 308 305 300 297 297 296 296 296 296 301 306 306 305 306 305 304 303 302 301 303 304 301 298 296 296 296 296 296 298 299 301 301 301 301 299
338 338 338 338 338 337 337 337 337 336 336 335 334 334 333 333 332 331 331 330 330 329 328 328 327 325 326 328 329 328 328 328 327 327 326 323 321 319 316 314 313 311 308 306 302 301 302 305 306 306 307 306 302 297 296 296 296 296 296 300 305 305 305 306 305 302 301 299 298 300 303 301 298 296 296 296 296 296 297 300 301 301 302 303 302
337 337 337 338 338 337 337 336 336 336 336 335 334 334 333 332 331 330 330 330 330 329 328 328 327 326 327 329 329 328 328 328 328 327 325 323 320 318 316 314 313 311 307 304 302 301 301 302 304 305 308 308 303 297 296 296 295 296 296 299 304 305 305 306 305 301 300 300 297 298 302 301 298 296 296 296 296 296 297 299 300 301 302 303 301
337 336 336 337 337 337 336 335 335 335 335 334 334 333 332 331 330 330 329 329 329 329 329 327 326 327 329 329 328 328 328 328 327 326 325 323 319 317 317 316 315 314 308 303 301 300 300 301 302 303 306 307 303 297 296 296 295 296 295 297 303 306 305 306 306 301 301 303 298 296 300 301 299 297 296 296 296 296 297 297 297 300 302 302 299
336 336 336 336 336 337 336 335 335 335 334 334 333 332 331 330 330 330 329 329 329 329 328 326 326 329 330 329 328 328 328 328 327 326 324 323 320 318 318 316 315 314 310 304 299 299 300 301 301 300 302 304 302 297 296 296 295 295 294 296 303 307 305 306 306 302 302 304 300 295 297 298 298 297 296 296 297 296 297 297 296 300 302 300 297
336 336 336 335 336 336 335 334 334 334 334 333 332 331 331 330 330 330 330 329 329 328 327 325 327 330 329 328 328 328 328 328 327 326 324 323 321 318 317 315 313 312 309 304 300 299 298 298 299 298 297 300 303 301 297 295 295 295 294 296 303 307 306 306 306 304 303 304 301 296 295 296 296 296 296 296 297 296 297 297 296 299 299 297 296
335 335 335 335 335 335 334 334 333 333 333 332 331 331 330 330 329 329 330 330 329 328 326 325 327 329 329 328 328 327 327 328 327 325 324 323 321 318 316 314 312 310 307 303 301 301 299 297 297 296 297 300 303 302 299 297 295 294 294 296 302 306 306 306 306 304 304 304 302 298 296 295 296 296 296 296 296 296 297 296 296 297 297 296 296
335 335 335 335 334 334 334 334 333 333 333 332 331 331 330 330 330 329 330 331 330 328 328 327 328 329 329 328 328 327 327 327 325 324 323 322 320 317 315 313 312 309 306 302 301 300 299 297 295 296 299 300 299 298 298 297 295 294 294 295 299 304 305 306 306 305 304 304 303 301 299 297 296 296 296 296 296 297 296 296 296 296 296 296 296
335 335 335 334 334 334 334 333 332 332 332 331 331 331 330 330 330 330 330 330 329 328 329 330 329 329 328 328 328 327 327 326 324 323 322 321 319 316 314 312 310 307 304 301 300 299 298 296 295 295 297 297 295 296 298 297 295 294 294 294 297 302 304 305 305 305 304 303 303 303 301 299 296 296 296 296 296 296 297 296 296 296 296 296 296
335 335 334 334 334 334 333 333 332 332 331 331 330 330 330 329 329 329 329 328 327 328 330 330 329 328 328 327 327 327 327 325 323 322 321 319 318 315 313 311 309 306 303 301 299 298 297 296 296 295 295 294 295 297 298 296 294 294 294 293 295 299 303 304 304 304 304 304 303 303 302 300 297 296 296 296 296 296 297 296 296 296 296 296 297
335 334 334 334 333 333 333 333 333 332 331 330 330 330 329 329 329 329 329 328 327 329 329 329 328 328 328 327 327 327 326 324 322 321 320 319 318 315 312 310 307 305 303 301 299 298 298 296 296 295 295 296 297 297 297 296 294 294 294 293 293 295 299 302 303 303 304 303 303 302 301 299 296 296 296 296 296 296 296 296 296 296 296 296 298
334 334 334 334 333 333 333 333 332 331 331 330 330 330 329 329 329 330 330 329 330 330 329 328 328 328 327 327 327 326 325 323 321 320 319 318 317 314 311 308 306 304 302 300 299 298 298 297 297 297 298 300 300 298 297 296 294 293 294 293 293 293 295 298 299 300 301 302 302 301 300 297 296 296 296 296 296 296 296 296 296 296 297 298 300
334 334 333 333 333 333 333 332 331 331 330 330 330 330 330 329 329 329 330 330 331 330 329 328 328 328 328 327 326 325 325 323 320 319 318 317 315 313 311 309 307 305 302 300 299 299 298 299 300 301 301 301 300 298 296 296 295 294 294 294 294 293 294 295 296 297 298 299 300 299 298 296 295 296 296 296 296 296 296 296 297 298 299 300 301
334 334 333 333 333 333 332 332 331 330 330 330 330 330 330 329 328 328 330 330 330 329 328 328 328 328 328 327 325 325 324 322 320 318 318 316 314 313 311 310 308 306 303 301 299 299 300 300 301 301 300 300 299 297 296 295 295 294 294 294 294 294 294 294 294 295 296 297 297 297 296 295 296 296 296 296 296 296 297 298 299 300 301 301 300
334 334 333 333 333 333 332 331 331 330 330 330 329 329 329 328 328 328 329 329 328 328 327 327 328 328 327 326 325 324 323 322 320 318 317 316 315 313 311 311 309 306 303 301 301 301 301 300 299 298 298 299 298 297 296 295 294 294 294 294 294 294 294 294 294 294 295 295 296 296 296 295 296 296 295 296 297 298 300 301 301 301 301 300 300
334 334 333 333 333 332 332 331 330 330 330 330 329 329 328 326 326 327 328 327 327 327 327 327 327 327 326 325 324 323 322 321 320 318 316 315 315 313 311 310 308 306 304 302 301 301 300 299 298 298 298 298 298 298 296 295 295 294 294 294 294 294 294 294 294 294 294 295 295 295 295 295 295 296 297 298 299 300 301 302 302 301 301 300 300
334 333 332 333 333 332 331 330 329 329 329 329 329 328 327 325 325 327 328 327 327 326 326 326 326 326 325 324 323 322 322 320 318 318 317 316 315 314 311 310 308 308 305 303 301 300 299 298 297 297 297 297 296 296 295 295 295 295 294 294 293 293 294 294 294 294 294 295 295 295 296 296 297 298 299 300 300 300 301 301 301 300 300 300 300
Wind_Speed
22 24 24 23 23 23 23 23 22 22 21 20 19 18 18 17 17 20 19 20 21 20 20 19 18 15 14 14 13 13 13 11 10 9 8 9 9 8 7 7 6 7 7 6 5 4 4 4 4 2 2 2 3 4 6 6 4 2 3 4 5 8 7 7 7 2 1 1 0 0 1 1 2 3 3 4 5 6 6 6 6 7 8 9 10
22 24 24 21 21 23 24 23 22 23 22 21 20 19 18 17 18 19 19 21 21 20 19 18 17 16 16 15 13 12 12 11 9 9 9 10 10 9 8 7 6 7 7 6 6 5 4 5 4 2 2 3 3 2 2 3 4 4 4 3 5 8 7 6 4 4 1 1 2 1 2 2 3 4 4 4 6 6 7 7 7 8 8 9 11
24 25 24 21 22 24 24 23 23 23 22 21 22 21 19 19 19 19 18 20 20 20 20 19 18 16 15 15 14 12 11 10 10 10 10 11 10 9 8 7 7 7 7 7 7 6 5 4 3 2 2 3 3 3 4 4 5 5 5 5 5 6 7 8 6 8 6 3 3 6 5 4 2 2 2 5 6 7 8 8 8 8 9 11 11
26 26 24 21 22 24 23 23 23 22 22 22 24 24 22 22 22 22 21 20 21 23 21 19 17 16 16 16 16 14 11 12 12 11 11 11 11 11 10 10 10 8 7 6 5 4 4 3 2 3 3 5 5 6 6 6 6 6 7 7 6 4 6 9 8 11 12 9 6 7 6 5 6 6 2 5 7 9 9 8 9 10 11 12 10
27 27 25 22 22 23 23 23 23 23 24 24 25 26 26 25 24 25 25 23 24 24 22 20 18 18 19 18 18 16 13 13 13 12 12 12 11 10 9 9 9 7 5 4 3 2 2 2 3 4 6 7 8 8 8 7 7 7 7 8 9 8 7 7 7 11 14 12 7 5 4 2 4 8 4 3 4 6 7 7 10 11 11 10 7
27 28 26 24 23 23 23 22 24 25 24 25 25 25 26 25 23 24 25 25 24 22 21 22 21 20 20 20 18 16 15 14 13 13 13 13 11 8 6 6 7 5 5 4 4 3 2 3 4 6 9 9 8 8 8 9 9 9 9 9 9 9 7 6 7 10 13 12 9 8 5 2 6 6 2 2 2 1 5 7 9 10 9 7 5
26 27 26 25 24 24 24 24 25 26 23 23 24 24 25 24 24 26 25 24 24 22 21 23 23 21 20 19 18 17 17 16 15 14 14 13 12 10 8 8 8 6 6 4 4 4 3 4 6 9 10 9 9 9 9 10 10 10 11 11 11 10 9 7 7 8 9 10 9 7 5 5 7 5 3 3 3 3 3 6 7 9 10 8 5
27 27 27 27 25 24 25 25 26 24 22 23 24 24 24 24 25 27 25 21 23 23 23 23 23 22 20 19 17 18 18 16 16 16 14 13 12 10 10 9 9 8 5 4 3 4 5 6 9 10 10 10 10 10 10 10 11 11 11 12 12 13 12 11 10 9 9 8 7 6 6 6 6 7 8 4 1 3 3 4 8 11 11 11 10
28 28 28 28 26 23 25 26 24 23 24 23 23 24 24 24 26 27 24 21 22 24 24 22 22 21 21 20 17 17 18 16 15 15 12 11 11 11 10 10 9 7 5 4 4 6 7 9 11 11 11 11 11 11 11 11 12 13 13 13 12 12 12 13 13 12 11 10 8 7 7 7 6 6 8 3 2 1 2 1 5 10 9 9 13
27 28 29 29 26 23 27 27 22 22 24 20 21 25 25 24 26 25 22 20 21 24 23 20 21 21 22 21 18 18 20 19 17 16 15 13 13 12 11 11 9 7 5 5 6 9 10 11 12 12 11 11 11 11 12 12 13 13 14 14 13 11 12 12 13 12 11 12 11 9 7 6 6 5 5 5 3 2 2 1 2 5 5 6 11
26 26 28 29 26 25 29 27 22 21 22 19 19 25 27 25 25 24 21 19 21 23 22 20 22 23 23 22 21 20 21 21 19 20 20 17 15 13 12 11 7 6 7 7 8 10 12 13 12 12 12 12 12 12 13 14 14 14 14 14 14 13 12 12 12 12 11 11 12 11 10 9 8 7 7 6 4 3 2 2 2 3 3 3 7
28 28 28 29 27 28 29 26 23 21 21 21 20 22 26 25 24 24 22 21 23 24 22 21 23 25 24 22 22 22 21 20 18 19 19 17 16 15 13 10 6 5 8 10 11 12 13 13 13 13 13 13 13 14 15 16 15 15 14 14 14 14 13 13 13 13 12 12 12 11 11 11 10 9 9 9 6 5 3 3 3 4 4 1 3
30 30 30 31 29 29 30 27 24 23 22 23 22 21 23 23 23 24 24 24 25 25 23 22 23 25 23 22 23 23 21 19 18 18 17 16 15 14 12 9 7 5 8 11 13 14 14 14 14 14 14 14 15 15 16 16 15 15 14 14 14 13 13 13 13 13 13 12 12 11 11 11 11 10 10 10 9 6 5 4 5 4 3 4 3
30 30 31 32 30 30 31 28 25 25 24 24 23 22 21 22 25 26 26 26 27 26 25 23 23 24 23 23 23 23 23 21 18 18 17 16 14 13 11 8 7 7 10 13 14 15 15 15 15 14 14 15 16 16 16 16 15 14 14 14 13 13 13 13 12 12 12 12 12 11 11 11 10 10 10 10 10 9 9 8 7 4 2 5 5
30 30 31 31 30 30 29 26 25 25 25 25 24 23 22 22 26 28 27 27 27 26 25 24 24 24 23 22 22 23 24 21 18 18 17 15 12 12 10 8 7 8 11 15 16 16 16 16 15 15 15 16 16 17 17 16 16 15 14 14 13 13 13 13 13 12 12 11 11 11 11 11 10 10 9 10 10 10 11 12 10 6 4 6 6
30 30 31 31 30 30 28 26 26 25 25 27 26 24 24 24 27 29 27 27 26 25 25 24 24 25 24 21 22 24 23 19 18 17 17 14 12 11 11 10 10 9 11 16 16 16 16 16 16 16 17 17 17 17 17 16 16 15 14 14 14 14 13 13 13 12 12 11 11 11 10 10 10 10 10 9 10 11 13 13 13 10 7 6 6
30 30 31 32 31 29 27 27 28 27 27 31 28 23 24 27 28 27 25 26 27 26 25 24 24 24 23 22 23 24 22 20 19 18 18 16 14 13 13 12 11 10 11 16 17 17 17 17 17 18 18 19 19 18 17 16 16 15 15 15 15 14 14 14 13 12 12 11 11 11 10 10 10 10 10 10 11 12 14 14 14 14 11 8 7
30 30 31 33 32 29 26 26 28 29 29 32 29 23 24 27 26 25 25 26 27 27 26 25 25 24 22 23 26 25 24 23 22 20 19 18 16 15 15 12 11 10 13 17 18 18 19 18 19 19 19 20 20 19 18 17 16 16 16 15 15 14 14 13 13 12 11 11 11 10 10 10 10 10 10 10 11 13 14 14 14 15 14 11 9
29 30 32 33 33 31 28 26 27 29 30 31 30 26 26 28 26 24 24 27 27 27 26 24 25 25 23 24 25 25 22 22 23 22 20 19 17 16 15 14 13 13 15 18 19 19 19 19 20 20 21 21 20 20 19 18 17 16 16 15 15 14 13 13 12 12 11 10 10 10 10 11 11 11 11 11 11 13 13 13 14 14 14 14 12
28 28 32 33 33 32 30 27 28 30 30 29 30 30 28 28 27 25 25 28 27 26 26 25 25 26 25 24 25 24 22 22 23 22 20 19 18 16 15 14 14 15 17 19 20 20 20 20 20 21 22 22 21 20 19 18 17 17 16 16 15 14 13 13 13 12 11 11 10 10 10 10 11 11 10 11 12 13 13 13 13 12 12 13 13
30 29 30 33 33 32 30 27 27 30 30 29 31 32 28 26 27 26 26 28 28 27 26 25 26 27 25 25 25 24 23 25 25 22 21 19 18 16 15 15 15 16 18 20 21 20 20 21 21 22 22 22 21 20 19 18 18 17 17 16 15 15 14 13 13 12 12 11 10 10 10 10 11 11 10 9 10 11 10 10 11 10 9 11 13
31 31 31 32 33 32 31 29 29 31 31 31 31 31 29 27 27 27 27 28 29 28 27 26 28 28 26 25 26 24 25 27 26 23 23 20 18 17 16 15 16 17 19 21 21 20 20 21 22 22 23 22 21 20 20 19 18 17 17 16 15 15 14 13 13 12 12 11 11 10 10 10 10 11 10 8 9 9 7 7 9 9 9 10 12
30 31 32 32 33 33 32 30 31 31 31 32 32 30 29 27 27 28 27 28 28 27 28 29 30 31 28 25 26 26 27 28 26 25 25 22 18 16 16 16 16 18 19 21 20 20 21 22 23 23 23 22 21 21 20 19 18 17 17 17 16 15 14 13 13 12 12 11 11 10 10 10 10 11 10 9 9 9 7 7 8 8 9 10 11
29 31 32 32 32 33 33 32 31 30 31 33 32 31 30 28 28 29 27 27 28 28 28 30 31 30 27 26 27 29 29 28 27 26 25 22 18 15 16 17 17 18 20 21 20 21 22 23 23 23 22 21 21 21 21 19 17 17 16 16 16 15 14 14 13 13 12 11 11 10 10 10 10 10 9 8 8 8 7 7 7 6 6 8 10
29 31 32 31 31 33 35 34 32 29 31 35 34 31 31 31 31 31 28 27 28 28 28 28 28 28 27 27 30 31 31 29 27 26 24 22 18 15 16 18 18 19 21 22 21 21 22 23 23 22 21 21 21 21 20 19 18 17 16 15 15 15 15 14 14 13 12 12 11 10 10 9 9 9 9 7 6 7 7 6 7 6 5 7 9
29 32 32 31 31 33 35 35 33 30 32 36 35 32 31 32 32 31 29 26 25 27 28 25 25 27 27 28 31 33 32 29 28 26 24 22 18 16 17 19 18 19 21 22 22 21 22 22 22 21 20 21 21 20 19 19 19 18 16 15 15 15 15 14 14 13 13 12 11 10 9 9 9 8 8 7 6 7 7 7 7 7 7 8 9
29 31 31 31 31 33 34 35 33 30 31 33 32 32 32 31 32 30 28 25 23 26 28 25 25 27 26 28 32 33 32 30 28 27 24 21 18 17 18 19 18 20 22 22 22 21 22 21 19 19 20 20 21 19 19 19 18 18 16 16 16 16 16 15 15 14 13 12 11 10 9 9 8 8 7 6 5 6 6 7 7 8 9 10 8
28 30 31 32 32 33 34 35 33 30 31 31 28 29 31 30 30 30 28 26 25 27 27 26 27 27 25 29 33 32 31 30 28 26 24 22 19 17 18 18 18 20 21 21 21 21 21 20 18 20 20 20 20 19 19 19 18 18 17 16 16 17 16 16 15 15 14 12 11 10 9 8 7 6 6 5 4 5 6 6 7 8 10 11 9
28 29 31 31 32 35 34 33 34 31 30 30 27 27 31 32 31 29 28 27 26 27 27 26 26 25 25 31 34 32 31 30 27 25 24 21 18 18 18 18 19 20 21 20 20 21 21 19 19 21 21 21 21 19 19 19 18 18 17 16 16 16 16 16 15 14 13 12 11 9 8 8 6 5 5 4 4 5 5 6 7 8 9 11 11
28 29 31 31 31 36 34 30 32 33 31 30 27 28 33 33 31 29 29 28 25 26 28 26 24 24 27 32 33 31 30 29 27 25 23 21 19 19 19 18 18 20 21 21 20 20 20 19 19 21 21 22 22 19 20 21 19 18 17 16 16 16 15 15 15 14 13 11 10 9 7 6 6 5 4 4 4 4 5 6 7 8 9 10 11
27 27 29 30 31 35 35 31 31 33 31 28 27 30 33 31 31 32 31 29 24 24 28 26 22 23 29 32 32 30 30 29 27 26 23 21 20 19 19 19 19 20 22 23 22 21 20 20 20 21 22 22 22 21 22 24 21 19 17 16 16 16 14 14 14 14 13 11 10 8 7 6 5 4 4 4 4 4 6 7 7 8 10 11 12
26 27 28 29 32 36 36 32 31 32 30 28 29 33 32 30 31 31 27 25 24 25 27 26 23 23 28 32 31 30 30 28 27 27 24 24 24 21 20 20 21 23 24 24 23 22 21 20 20 21 22 22 22 23 24 24 22 21 19 16 15 15 14 14 14 13 12 11 10 8 7 6 4 3 3 3 3 4 5 6 6 8 9 10 11
25 27 28 29 32 36 36 33 32 31 29 27 29 31 31 30 29 26 22 23 27 28 27 25 22 22 27 32 31 29 28 28 28 28 25 26 26 23 22 22 22 23 24 23 22 21 21 21 20 20 21 23 24 25 24 23 22 21 21 18 14 13 14 13 12 12 11 10 10 8 7 5 3 2 2 1 1 3 4 5 7 8 9 10 11
24 26 27 29 32 35 35 33 32 31 29 27 28 29 30 30 29 27 24 23 26 29 27 23 21 21 24 29 29 27 27 29 29 28 26 26 25 21 22 23 23 24 24 24 24 22 21 22 22 21 21 22 25 25 23 23 22 21 22 19 14 12 13 12 12 13 12 11 11 8 6 5 4 4 3 3 2 1 3 5 6 7 9 11 12
23 25 27 28 31 33 33 33 33 31 30 28 28 30 30 28 30 29 25 22 23 26 24 21 21 20 21 25 28 29 31 31 29 27 25 23 22 21 22 23 24 25 24 24 26 25 24 23 23 21 20 21 24 24 22 23 22 21 21 20 15 13 13 12 13 15 15 15 14 11 8 7 7 5 4 3 2 1 2 2 3 4 5 7 9
23 24 26 27 28 29 31 33 32 31 29 28 29 31 29 27 28 27 22 20 22 24 23 23 23 21 23 27 29 29 31 30 27 25 23 22 22 23 24 23 24 25 24 23 25 27 26 25 23 22 20 20 24 24 22 23 23 21 23 22 16 13 13 12 13 15 15 14 14 13 11 9 9 7 4 3 2 1 2 1 1 2 2 4 7
21 23 25 26 26 26 27 31 32 30 27 27 29 30 27 24 23 23 22 22 22 23 25 26 24 24 27 30 28 27 28 28 25 24 22 22 24 25 26 25 25 26 26 24 24 25 26 26 24 22 18 18 23 24 22 23 23 22 24 23 15 11 13 12 12 15 14 13 14 13 10 9 9 8 6 5 4 2 2 2 1 2 2 3 7
21 23 25 25 25 25 25 28 31 30 27 28 29 29 26 24 23 22 23 25 24 23 24 25 25 26 29 28 25 25 27 27 25 24 23 23 27 27 25 23 22 25 28 28 26 24 24 24 23 22 19 18 23 25 22 23 24 23 25 24 15 11 13 12 12 15 13 12 15 15 12 11 10 9 7 6 4 3 3 2 2 1 2 4 7
21 22 25 26 25 25 23 23 27 30 29 29 30 27 23 23 24 23 23 24 24 23 23 24 27 28 26 25 25 26 27 26 24 24 25 26 28 26 23 22 22 25 29 31 29 26 24 21 21 22 23 21 21 23 23 24 25 24 25 23 15 10 13 13 12 14 13 11 14 15 14 13 11 9 8 7 5 5 3 3 3 1 3 6 7
21 21 24 26 26 25 24 23 26 29 28 27 27 25 23 22 22 23 26 25 23 23 23 23 27 28 26 26 27 28 29 27 25 26 26 26 27 27 26 26 26 27 31 33 33 29 27 25 22 23 24 21 19 22 23 24 25 24 25 24 17 10 12 13 12 13 13 12 14 15 14 13 11 9 9 7 6 5 4 3 3 2 4 5 6
21 21 23 25 26 26 25 25 25 26 27 26 25 24 24 23 22 26 31 30 26 27 28 26 27 29 28 28 28 28 28 28 27 29 28 27 28 28 27 27 27 30 32 33 32 30 28 29 28 26 24 22 22 23 22 22 24 24 24 25 21 14 11 13 13 13 12 12 13 14 14 14 12 10 9 8 7 6 4 4 3 3 4 5 6
21 22 22 24 25 26 26 25 25 24 24 25 23 22 23 24 23 26 31 30 28 30 30 27 25 26 26 27 26 26 26 26 27 30 30 28 27 27 26 27 28 30 30 29 29 30 29 29 29 28 25 25 27 27 23 21 23 24 24 26 25 20 15 14 12 12 12 12 12 13 14 13 12 11 10 9 8 6 5 4 4 4 4 5 7
21 23 23 23 24 25 26 25 25 25 25 24 23 24 24 24 24 24 24 24 25 28 29 28 26 25 25 25 25 26 27 27 28 29 29 27 26 26 26 27 27 28 30 29 28 29 29 28 29 29 28 27 27 28 28 25 24 24 24 26 26 23 20 18 14 11 11 11 11 14 17 15 12 12 11 10 8 7 5 4 5 5 5 6 7
21 22 22 22 23 25 25 24 23 24 25 24 24 25 24 23 23 23 22 23 24 26 28 28 26 25 23 22 22 24 26 27 28 28 27 26 26 26 26 27 28 29 30 30 29 30 30 29 29 29 29 28 26 28 31 28 24 25 25 26 27 25 23 22 18 12 10 11 12 17 20 17 13 12 11 10 8 6 5 5 5 5 6 6 7
21 22 22 21 22 23 24 24 23 23 23 23 24 25 22 20 21 24 26 28 27 25 24 23 23 23 21 20 20 22 24 26 26 27 27 26 27 27 27 28 30 31 32 32 31 31 30 29 30 29 28 26 25 28 31 28 25 25 25 25 27 27 25 25 22 17 15 16 17 20 21 18 14 13 12 10 9 7 6 6 6 6 7 7 6
21 22 21 20 20 22 23 23 23 22 22 22 22 22 21 20 22 25 27 29 28 24 21 21 22 21 20 19 19 20 22 24 25 26 27 28 28 27 27 29 31 32 33 32 30 29 28 27 26 24 22 22 23 28 32 29 25 26 27 26 26 27 26 26 25 23 21 20 21 22 21 17 15 14 12 11 9 8 7 7 6 6 7 6 4
20 21 21 19 20 22 23 23 22 21 21 20 19 19 19 19 20 22 24 26 26 25 22 21 21 21 20 19 19 18 20 22 24 27 29 30 28 27 28 30 32 32 32 31 28 27 25 22 21 21 22 24 26 29 32 30 26 26 27 27 26 26 25 25 26 26 24 23 23 22 20 17 15 14 13 11 10 8 8 7 6 8 9 7 5
18 19 19 18 19 21 22 22 21 20 19 19 18 17 18 18 18 20 23 24 24 22 21 20 20 20 20 20 19 18 18 20 23 28 31 31 30 28 28 29 30 30 31 30 28 25 22 22 25 27 27 28 28 28 29 29 26 25 27 27 26 26 25 25 26 27 26 24 22 20 18 17 16 15 14 12 10 9 9 8 7 8 10 9 10
17 18 18 17 18 20 21 22 21 20 19 19 18 18 19 19 20 23 24 22 21 19 18 18 19 19 20 20 20 19 20 20 23 27 31 32 29 26 26 27 28 27 27 27 26 24 24 26 29 30 29 27 24 24 27 28 25 23 25 25 25 25 25 25 26 27 26 23 21 20 19 18 17 16 14 12 10 9 10 10 9 11 12 11 12
16 16 17 17 17 19 20 21 20 20 19 19 19 20 20 19 20 22 21 19 18 18 18 18 18 18 18 19 19 21 22 22 23 26 30 31 28 25 25 26 26 25 24 25 26 27 27 29 28 26 25 24 23 24 26 26 22 20 21 23 24 24 24 24 25 26 25 23 21 21 20 18 17 15 13 12 11 10 10 11 12 12 13 12 12
15 16 17 17 16 18 20 20 20 20 20 19 20 20 19 18 20 20 18 17 18 18 18 18 17 16 16 17 19 21 22 23 23 25 28 30 29 27 26 26 25 25 25 26 28 28 27 26 26 24 24 25 26 27 26 23 20 19 20 22 23 23 23 24 25 25 25 24 22 21 19 17 15 14 14 14 12 11 12 13 13 13 13 13 13
Wind_Direction
185 180 177 176 180 182 181 183 182 179 182 182 179 177 178 183 181 180 185 188 192 191 187 186 184 182 180 178 178 184 187 188 192 186 186 189 179 174 175 175 177 177 173 167 169 182 199 225 229 186 171 240 235 189 187 209 208 161 170 162 151 150 156 196 217 204 120 117 63 257 173 84 17 36 77 80 72 63 53 50 43 38 33 30 30
177 171 171 172 177 181 181 181 181 179 181 182 178 173 176 184 184 183 188 191 193 191 188 187 186 185 183 180 179 185 187 188 191 187 188 183 173 173 174 173 176 173 170 169 173 185 207 225 227 197 185 212 218 211 187 170 173 169 166 163 162 153 155 196 193 119 96 345 84 149 175 127 44 48 74 64 59 59 52 46 40 38 38 40 37
174 168 169 174 177 179 180 180 182 181 179 181 177 173 178 184 185 185 188 191 190 188 188 187 188 190 188 184 184 187 188 187 189 191 188 180 173 172 170 170 172 173 183 190 190 194 203 214 219 200 188 207 198 188 176 166 175 180 175 177 175 167 174 194 187 165 183 220 200 200 192 159 121 74 63 57 57 51 48 45 39 35 34 40 37
176 170 169 174 178 178 180 181 181 179 178 180 176 174 181 187 189 190 189 193 193 190 189 188 189 190 184 183 186 186 185 186 191 192 184 179 182 184 183 181 178 178 184 193 203 205 203 208 206 192 191 190 178 174 175 177 183 189 195 185 160 159 198 206 205 187 180 186 209 219 210 194 173 166 132 42 42 38 40 35 33 36 37 40 33
177 170 168 170 175 177 180 180 178 178 181 182 179 179 183 188 195 196 192 197 202 195 189 187 186 185 182 182 185 186 189 192 198 201 187 180 190 194 188 185 184 184 181 181 205 211 201 206 198 188 185 179 174 174 177 181 188 193 201 196 176 177 200 209 202 190 185 189 201 212 228 235 156 159 154 73 53 38 39 31 29 33 36 40 27
178 170 170 171 173 176 178 177 176 180 183 183 182 183 186 189 197 201 197 202 205 196 189 189 186 187 187 183 184 192 201 203 208 210 194 179 183 189 183 182 185 197 208 212 232 254 236 203 198 187 176 173 174 177 180 184 190 194 196 196 188 181 179 180 179 183 191 199 205 214 226 155 127 153 179 134 161 318 4 19 34 37 35 33 5
181 172 172 172 171 175 178 178 179 180 179 183 184 183 188 189 193 204 206 202 201 195 191 190 186 188 189 187 192 203 209 208 205 201 192 184 184 186 186 191 198 211 227 239 257 256 226 190 189 182 172 171 177 180 182 185 188 191 190 184 176 168 155 148 150 160 180 191 195 203 209 171 158 176 187 167 196 223 310 340 4 19 34 43 26
183 175 173 171 170 173 176 179 180 180 179 183 184 182 186 185 190 206 208 195 196 198 193 189 188 188 189 193 203 206 206 206 199 190 187 188 191 191 187 195 212 220 231 255 254 219 195 187 184 177 173 175 181 183 182 183 182 180 179 174 169 165 158 152 147 144 151 157 161 160 155 158 169 184 186 196 261 190 201 296 321 335 0 26 27
184 179 174 170 169 170 175 180 178 178 183 186 187 185 184 184 192 203 200 189 194 197 194 191 189 187 190 198 201 197 197 198 191 184 181 187 196 195 191 204 221 221 235 255 223 190 185 187 183 177 178 180 181 180 177 176 173 168 166 163 163 166 163 159 154 150 147 140 137 135 132 128 132 163 177 172 15 110 163 248 291 307 323 345 2
185 180 174 168 168 169 177 181 177 177 183 187 190 186 181 184 190 193 190 188 190 192 192 190 186 186 193 200 196 192 194 190 182 179 181 192 197 192 199 217 222 216 229 231 196 183 185 185 183 181 182 182 180 174 169 168 164 161 158 153 156 160 159 156 153 153 153 150 144 133 126 119 111 119 123 102 61 63 62 24 272 294 293 280 332
186 179 172 167 167 171 175 176 173 175 178 180 184 183 182 185 188 189 189 186 186 189 190 187 187 191 197 201 199 197 194 187 181 180 184 194 195 191 204 215 212 208 208 197 183 182 184 184 183 183 183 180 176 170 164 162 158 155 152 150 151 151 149 148 146 146 148 150 148 142 142 136 123 116 107 96 65 48 35 6 359 329 313 239 316
185 177 171 163 162 169 173 173 172 173 174 176 178 180 183 185 186 190 190 185 185 190 193 190 190 195 198 200 201 200 193 186 184 183 185 193 193 193 204 202 191 203 192 180 184 185 183 184 184 184 184 178 172 168 163 158 155 153 151 150 149 146 145 144 143 143 142 140 137 133 134 129 121 118 113 109 91 56 26 10 14 352 354 1 328
184 175 169 162 162 169 172 172 173 175 174 174 177 179 182 183 183 187 187 185 188 192 195 193 192 196 197 197 198 197 193 188 186 185 186 191 191 192 199 190 185 200 183 179 186 184 183 186 186 185 182 177 171 165 161 158 155 154 152 149 147 144 142 143 142 141 137 134 131 126 124 120 114 113 107 104 99 76 61 48 18 3 9 6 7
183 175 168 164 166 170 170 173 178 180 179 178 180 183 183 182 182 186 187 186 189 193 197 196 194 194 194 196 199 196 192 189 187 186 185 187 187 186 187 186 196 202 184 183 185 183 187 189 187 185 180 175 170 164 160 158 156 155 153 149 146 144 142 141 138 136 134 129 127 124 120 117 109 106 102 97 95 85 78 70 34 12 24 15 17
181 176 170 166 168 169 169 175 179 181 181 183 186 186 184 182 180 183 185 185 189 193 196 195 191 191 193 196 196 190 186 184 184 183 181 183 182 180 183 185 199 200 184 186 188 186 190 190 186 184 179 173 169 164 162 160 160 158 154 152 150 146 142 138 135 133 132 127 125 123 117 114 107 102 101 96 93 84 76 73 55 38 32 23 22
181 177 172 168 168 170 171 174 178 179 182 186 187 186 184 182 179 181 183 185 189 190 190 189 187 189 195 195 189 185 182 180 181 181 179 181 177 183 196 188 182 186 184 188 190 188 191 190 185 183 177 172 167 165 164 163 161 158 156 155 151 146 140 137 136 133 131 127 125 121 114 110 106 102 101 94 91 83 75 72 66 60 50 23 12
181 178 175 170 167 170 172 176 180 182 184 186 185 183 181 180 178 180 182 185 189 189 187 187 187 188 191 189 184 181 180 179 180 181 181 180 178 193 210 195 177 182 188 191 191 190 191 189 185 181 176 172 168 166 166 164 162 160 159 158 151 146 141 138 137 134 131 129 123 119 115 110 106 103 98 92 88 82 75 71 67 64 60 43 16
181 179 177 172 169 173 176 177 181 184 185 185 183 180 179 180 180 179 180 185 188 188 188 189 190 188 185 185 184 181 181 183 183 182 181 179 184 202 212 202 191 193 193 194 194 193 192 188 184 180 176 174 170 168 166 165 165 164 161 156 150 145 143 141 139 135 131 128 125 120 114 111 106 101 94 86 82 79 75 71 68 64 58 56 42
179 177 175 174 172 175 178 177 178 181 185 187 185 181 180 183 183 179 181 185 185 187 189 189 191 189 185 184 184 181 182 183 184 183 182 184 195 207 209 201 198 198 197 197 196 194 192 187 182 179 176 175 171 167 166 166 168 166 160 154 150 146 145 143 140 137 133 128 125 120 116 113 105 98 92 85 80 76 74 69 66 61 52 53 52
175 175 176 177 174 175 178 177 176 178 184 186 183 181 181 184 184 179 181 185 185 187 188 188 191 191 185 184 185 182 182 184 185 185 185 191 200 208 208 201 196 197 199 198 196 195 191 185 181 180 178 176 172 167 167 169 169 165 158 153 150 147 147 145 141 139 135 130 125 121 119 114 107 100 91 85 80 73 70 66 63 57 45 43 48
174 177 179 177 174 174 176 176 176 178 183 183 180 179 180 182 182 180 182 186 188 188 187 188 194 192 184 183 185 182 184 187 187 188 190 195 200 205 207 201 197 202 201 197 195 194 190 184 181 181 180 177 172 169 169 171 169 163 157 153 150 149 148 146 144 142 138 132 127 123 119 114 111 106 94 84 80 71 62 59 60 55 42 35 39
172 175 179 176 173 172 173 174 176 179 182 184 181 179 179 182 183 181 183 187 189 187 186 190 195 193 185 184 185 183 185 188 188 190 192 195 200 204 204 200 201 204 201 195 195 192 188 185 183 181 180 178 174 171 171 173 170 163 158 154 151 152 152 149 146 145 141 137 132 128 123 116 112 108 102 98 92 85 69 60 61 53 42 35 32
171 172 176 175 172 171 172 174 176 178 181 183 182 179 179 181 182 182 184 188 189 186 187 191 195 193 188 185 186 186 187 189 189 190 192 196 202 202 201 202 203 204 198 193 193 191 187 185 182 181 180 177 176 175 175 174 169 164 161 157 154 156 155 151 149 147 144 140 136 134 129 122 116 108 102 97 95 92 79 64 60 45 31 29 29
173 175 175 172 169 170 173 176 177 179 181 184 183 182 184 186 183 183 184 187 189 188 189 192 194 191 187 188 191 188 187 190 189 190 194 199 203 202 200 203 205 203 196 191 192 191 188 185 182 181 180 178 178 179 176 172 168 167 164 159 157 158 156 153 152 151 148 145 143 139 133 124 119 113 104 98 94 92 81 63 60 48 15 10 24
173 174 173 171 170 172 175 177 179 180 182 185 186 186 190 192 186 184 185 185 187 188 188 191 192 188 185 191 193 189 190 192 190 191 197 201 203 202 200 203 205 200 193 191 192 190 187 186 181 179 181 181 181 179 175 171 171 171 165 160 160 160 160 160 159 157 153 150 148 144 138 130 123 119 113 107 97 91 85 68 61 56 23 14 26
171 171 171 170 171 174 176 178 181 182 182 185 187 189 191 190 184 183 185 182 181 185 187 186 187 186 186 190 192 189 192 194 191 193 199 200 199 200 201 204 203 195 191 192 192 188 185 184 180 180 184 185 182 178 175 175 176 173 166 164 166 166 166 164 162 162 159 157 155 149 145 139 132 126 120 114 100 87 84 69 56 53 42 35 28
171 168 167 168 172 176 177 178 181 181 182 183 185 189 190 185 181 183 185 182 179 184 187 185 184 185 187 191 192 191 192 193 192 196 200 198 197 200 203 205 199 191 192 194 190 185 184 181 178 181 185 186 183 178 177 179 178 175 171 172 172 170 168 166 165 167 166 164 161 155 152 147 139 134 125 114 102 86 78 65 48 42 43 41 27
173 167 167 169 173 176 177 179 180 179 181 183 183 188 188 182 181 183 185 185 183 183 187 187 185 184 187 191 192 190 192 193 193 197 199 196 196 201 202 202 195 190 193 192 187 186 184 178 179 183 186 188 184 179 181 182 179 177 177 177 176 172 171 171 169 171 169 165 165 161 157 151 141 135 125 109 94 78 68 59 43 34 37 39 32
178 169 171 172 173 175 175 178 180 179 181 183 183 185 185 182 182 183 185 188 185 182 186 187 184 184 188 190 191 190 192 194 194 196 196 195 198 202 199 197 193 191 192 188 185 188 183 178 183 186 188 191 185 180 184 184 180 182 181 178 177 175 175 174 171 171 169 169 172 167 158 154 144 134 125 104 81 64 56 48 37 30 30 34 36
180 172 173 173 174 175 172 173 178 180 181 183 184 187 188 186 184 182 186 189 183 180 186 186 183 186 188 189 192 193 193 194 195 194 194 196 201 201 196 194 192 192 192 186 185 188 183 181 187 187 190 193 187 185 190 186 181 183 182 178 178 177 175 174 171 170 170 173 177 170 160 159 152 137 124 96 71 54 47 40 33 28 28 30 32
179 173 172 171 173 174 173 173 178 181 182 182 185 189 189 187 184 182 186 189 183 180 185 184 180 184 187 190 193 194 192 194 194 193 193 195 197 195 193 196 196 195 195 191 188 188 184 184 188 189 193 194 189 192 197 191 185 182 179 179 180 177 174 176 175 173 173 175 178 174 168 170 161 143 121 88 63 43 35 32 27 26 26 27 26
177 173 172 172 175 176 176 177 180 181 182 183 186 187 185 183 182 182 184 186 182 181 183 182 179 183 188 192 193 192 193 195 194 194 196 197 198 196 196 201 203 199 196 193 190 189 187 186 187 191 196 196 195 201 201 196 192 187 180 178 181 179 178 180 179 176 175 178 180 179 179 179 171 146 113 79 57 43 34 26 25 28 26 25 24
177 174 172 173 177 178 178 179 180 180 181 182 185 185 184 183 182 182 182 181 181 184 184 180 179 183 189 193 195 194 195 194 193 197 201 202 203 204 204 205 204 198 194 192 189 188 189 189 186 191 198 201 203 205 202 198 197 195 185 175 177 186 184 182 182 178 177 183 185 189 190 184 178 162 137 117 44 33 31 20 19 23 22 23 24
178 175 173 175 178 179 180 180 179 179 180 182 185 186 184 183 183 185 184 179 178 183 183 178 178 180 185 192 197 197 193 190 194 202 207 206 206 208 209 208 204 199 196 195 193 190 191 193 192 193 199 204 208 207 203 198 198 200 190 173 171 191 190 185 188 184 182 186 186 190 204 205 201 193 178 178 190 58 40 24 8 3 3 8 11
178 176 175 177 179 181 182 181 180 181 181 180 183 185 182 180 182 184 183 179 179 181 180 177 177 175 179 190 199 200 197 196 201 208 211 208 207 211 212 209 207 203 199 198 198 196 196 197 195 195 199 206 211 208 203 201 199 199 191 175 170 189 192 190 197 192 190 192 187 182 193 212 219 214 202 197 193 159 88 48 352 336 339 338 343
179 177 175 176 179 181 181 180 181 181 180 180 182 183 179 175 177 180 179 179 181 181 180 181 180 178 183 193 201 203 203 205 209 211 209 206 206 210 213 208 205 204 202 202 203 202 201 199 197 197 198 207 214 210 203 205 203 197 191 181 175 188 193 194 202 199 195 198 195 185 186 208 223 220 206 204 211 191 122 104 313 320 330 307 307
178 178 176 176 179 180 180 182 182 178 176 177 177 176 172 169 173 178 177 177 180 183 185 185 184 186 192 198 203 208 209 210 211 209 207 207 207 210 214 212 209 207 205 205 206 204 204 204 202 198 195 205 217 213 205 207 206 198 193 187 178 190 198 196 205 205 197 199 201 189 183 211 230 226 209 200 208 201 148 149 238 299 331 305 294
173 176 175 173 173 172 175 180 182 179 177 177 176 173 170 171 176 178 177 177 179 184 185 184 188 193 197 200 207 215 214 211 208 205 204 209 212 214 219 223 223 220 215 212 210 208 206 208 207 203 199 206 218 216 207 208 209 202 198 190 179 193 203 198 207 207 196 204 212 198 189 207 222 221 211 201 202 202 178 176 202 269 323 294 289
169 172 173 173 170 167 169 175 179 181 183 182 181 178 173 175 180 179 179 180 182 185 185 189 198 202 200 203 211 217 216 211 207 205 205 211 215 216 219 224 226 224 219 215 212 209 208 209 210 210 209 210 219 219 212 210 211 206 200 190 179 198 209 200 206 210 197 206 222 212 205 216 222 216 209 203 204 208 198 195 207 251 295 285 297
167 168 171 173 171 169 173 175 176 179 181 178 178 178 177 180 181 180 182 184 184 186 187 192 201 204 204 208 215 218 217 214 210 207 209 214 217 216 216 218 218 217 215 213 211 210 210 212 213 217 218 214 219 224 218 214 213 209 201 191 178 192 216 206 204 210 202 207 223 220 215 223 227 219 213 209 210 211 211 225 233 251 274 286 315
164 165 167 170 172 173 174 173 173 178 180 177 178 180 181 183 183 183 187 189 188 190 190 192 199 206 209 214 218 220 220 218 213 210 211 215 218 217 217 218 218 217 215 215 215 214 214 213 213 216 218 214 217 223 221 219 218 211 203 195 180 176 207 213 207 209 205 209 225 228 224 225 225 222 220 216 215 216 222 241 259 270 283 308 327
160 162 165 166 168 171 172 172 174 176 178 178 181 183 183 185 187 190 196 202 204 203 202 201 205 211 217 221 225 226 224 219 214 212 214 218 220 218 218 219 220 220 217 216 217 216 213 210 210 211 214 216 220 222 218 220 224 217 206 201 189 178 188 202 205 212 212 210 219 230 232 229 223 223 225 222 221 226 232 249 274 289 305 322 324
154 158 165 165 165 168 171 172 173 175 178 180 180 181 183 186 188 190 195 199 201 204 207 209 211 216 222 227 230 230 226 219 215 215 216 219 220 217 217 220 220 218 216 215 216 214 211 210 211 214 219 222 224 222 217 219 226 221 210 205 199 189 185 190 193 205 219 219 216 225 235 236 228 225 229 227 226 231 241 258 277 294 311 314 321
156 160 165 165 164 168 170 171 172 175 179 179 179 182 184 183 184 185 182 178 183 196 207 211 215 219 222 224 226 228 227 222 218 217 216 218 219 218 218 219 217 214 214 214 213 212 210 211 213 218 222 223 220 220 221 222 225 223 216 209 205 199 192 190 186 185 209 222 220 225 233 237 234 231 232 232 233 239 252 264 276 295 307 310 331
158 161 162 162 163 166 168 172 175 177 179 181 184 186 183 180 187 195 193 188 189 200 209 215 219 221 219 219 221 224 226 224 220 219 218 219 220 219 216 216 215 212 213 214 213 213 213 214 217 222 224 221 218 222 226 226 223 222 219 212 209 207 202 197 190 184 195 209 217 228 237 239 236 236 235 234 237 242 253 266 279 295 304 313 333
158 160 161 161 163 166 169 173 177 180 183 185 187 188 190 194 202 209 208 204 202 206 215 223 225 220 217 220 223 224 224 224 222 221 221 222 222 218 214 214 215 214 214 215 214 214 215 215 217 218 216 213 216 224 229 229 225 223 220 214 211 211 209 206 203 201 204 208 215 229 238 238 236 237 236 236 239 243 254 267 274 289 309 324 315
159 160 162 162 164 168 171 175 178 181 184 186 187 195 203 202 201 207 210 209 209 213 220 224 222 216 216 222 227 227 225 224 222 220 220 222 222 218 216 218 219 218 216 215 214 215 215 210 206 204 205 209 216 224 229 230 226 223 221 217 213 213 212 211 211 213 215 217 220 228 234 235 237 239 238 241 245 249 261 273 277 292 314 323 278
159 161 163 165 168 170 171 175 177 177 180 184 183 188 194 190 190 202 210 211 212 216 220 220 216 214 219 226 229 225 221 221 221 219 220 222 221 218 220 224 226 224 221 219 217 214 209 205 205 207 209 212 218 226 233 233 228 224 222 219 215 214 213 211 212 216 219 223 227 230 231 233 236 238 239 243 247 255 276 293 292 282 287 287 270
161 162 165 168 170 169 169 174 177 175 178 180 177 180 189 193 199 207 210 210 212 215 217 217 217 219 224 229 227 220 215 219 221 218 220 225 225 223 224 228 230 230 226 222 217 210 207 211 216 217 217 217 217 224 233 236 231 226 224 223 220 217 214 212 213 215 219 223 228 230 229 231 235 238 243 248 252 265 283 291 279 259 258 265 268
161 164 169 173 171 168 169 175 178 177 178 178 177 181 187 191 197 205 208 207 209 212 215 218 221 224 226 225 222 216 213 216 220 218 219 224 227 225 224 225 227 227 223 218 216 215 216 220 221 219 219 218 216 222 232 235 232 227 226 226 225 221 218 216 216 216 217 219 224 227 230 233 236 240 246 250 251 256 262 263 259 254 257 265 267
163 167 174 177 172 171 175 178 178 177 177 180 184 184 183 185 194 205 209 205 204 208 214 219 222 224 222 219 218 218 214 213 217 217 219 223 225 224 221 221 225 227 225 222 223 224 226 228 226 222 223 223 224 230 236 234 228 225 225 227 227 224 221 218 216 217 217 218 220 225 228 230 234 241 246 248 248 250 250 252 256 258 261 265 265